Location: Cerro del Santo
(40.4958°N, 5.0805°W)
Time: 20:18:38
(UTC+00:00)

Daily predictions for brighter satellites

Satellite Brightness Start Highest point End
(mag) Time Altitude Azimuth Time Altitude Azimuth Time Altitude Azimuth
Intercosmos 24 3.9 18:55:26 10° N 18:59:05 84° E 19:03:37 10° S
TRACE 4.5 18:58:06 10° NNE 19:01:27 54° E 19:04:44 10° S
Cosmos 1400 Rocket 4.0 18:58:26 10° NNE 19:01:27 22° ENE 19:04:25 10° SE
Cosmos 1725 Rocket 4.1 18:56:12 10° S 19:02:22 88° W 19:08:35 10° N
OAO 2 Rocket 4.4 18:58:07 10° WSW 19:02:33 35° SSW 19:07:00 10° SE
CZ-4B R/B 3.8 18:58:38 10° SE 19:03:02 40° ENE 19:07:30 10° N
USA 59 Rocket 1.7 19:00:12 10° N 19:03:08 19° NE 19:06:45 10° E
Aureole 1 Rocket 3.3 19:00:21 10° NNW 19:04:18 57° WSW 19:07:32 10° S
USA 229 DEB 4.1 18:56:53 10° NNW 19:04:25 69° NE 19:12:34 10° SE
USA 229 4.1 18:57:05 10° NNW 19:04:38 69° NE 19:12:43 10° SE
ATLAS CENTAUR R/B 3.2 18:59:52 10° NW 19:04:53 73° SW 19:12:45 10° SE
Cosmos 1943 Rocket 4.1 19:04:08 10° NNE 19:06:22 12° NE 19:08:36 10° ENE
ACS3 Solar Sail 3.4 19:03:09 10° E 19:06:59 17° ENE 19:10:50 10° NNE
Landsat 7 4.0 19:02:48 10° S 19:07:30 80° WSW 19:12:13 10° NNW
Cosmos 1328 Rocket 4.4 19:10:36 10° NNE 19:14:19 28° ENE 19:18:01 10° SE
Timation 2 Rocket 4.1 19:08:56 10° NNW 19:15:18 89° ENE 19:21:55 10° SSE
Helios 1A 3.2 19:12:19 10° NNE 19:16:14 44° E 19:20:06 10° S
Cosmos 1536 4.4 19:14:52 10° ESE 19:17:03 15° E 19:19:15 10° NE
COSMOS 2428 2.8 19:12:23 10° S 19:17:55 56° ESE 19:23:30 10° NNE
Meteor 1-4 Rocket 3.8 19:17:03 10° NE 19:18:28 13° ENE 19:18:58 13° E
Cosmos 1726 1.2 19:19:36 10° S 19:22:23 80° E 19:25:10 10° N
CZ-4 R/B 1.9 19:20:13 10° SE 19:23:42 36° ENE 19:27:15 10° N
USA 290 4.3 19:22:45 10° NNE 19:24:33 14° ENE 19:25:26 13° ENE
ISS -3.0 19:22:08 10° SSW 19:25:09 32° SE 19:27:43 13° ENE
SKYMED 3 4.3 19:22:12 10° NNE 19:26:20 71° ESE 19:30:24 10° S
Cosmos 2292 Rocket 4.1 19:22:49 10° NNW 19:26:21 45° W 19:29:18 10° SSW
Cosmos 2233 Rocket 4.1 19:21:32 10° S 19:27:39 83° W 19:33:50 10° N
BlueWalker 3 3.1 19:24:48 10° NNW 19:28:07 29° NNE 19:30:35 15° E
USA 186 2.9 19:28:32 16° ESE 19:30:13 25° ENE 19:32:56 10° NNE
Meteor 2-4 Rocket 4.0 19:25:04 10° NNW 19:31:01 79° W 19:36:50 10° S
Cosmos 1626 3.7 19:29:13 10° NNW 19:31:54 30° W 19:34:32 10° SSW
Cosmos 1151 Rocket 3.4 19:28:00 10° NNW 19:32:13 65° W 19:36:24 10° S
CZ-4B DEB 4.2 19:27:51 10° SSE 19:33:18 65° ENE 19:38:45 10° N
SAR-Lupe-2 3.7 19:29:54 10° S 19:33:27 78° WSW 19:37:03 10° NNW
Cosmos 1674 2.6 19:30:53 10° N 19:34:06 43° E 19:36:56 12° SSE
Cosmos 1733 4.5 19:34:15 18° E 19:34:15 18° E 19:36:29 10° NE
Cosmos 44 Rocket 3.1 19:29:48 10° NNW 19:34:33 79° ENE 19:38:55 12° SE
Resurs 1-3 3.6 19:31:45 10° SSE 19:36:05 86° W 19:40:26 10° NNW
USA 306 3.4 19:33:50 10° WSW 19:36:39 41° NW 19:40:00 10° NE
Cosmos 2278 Rocket 3.1 19:32:22 10° N 19:37:20 30° ENE 19:40:33 18° ESE
NOSS 0 Rocket 4.1 19:31:52 10° S 19:37:50 50° ESE 19:43:50 10° NE
PAYLOAD B 4.4 19:33:36 10° SSE 19:39:01 56° ENE 19:44:31 10° N
CZ-4B R/B 3.6 19:34:11 11° SE 19:39:07 41° ENE 19:44:09 10° N
Cosmos 1464 Rocket 4.5 19:35:08 10° SSE 19:40:51 38° E 19:46:38 10° NNE
Cosmos 1937 Rocket 4.4 19:36:48 10° NNW 19:41:56 53° WSW 19:47:03 10° S
Cosmos 1842 3.5 19:42:05 10° N 19:45:30 39° ENE 19:47:10 24° SE
Cosmos 1340 4.5 19:43:19 10° SW 19:46:13 29° WNW 19:49:07 10° NNW
CZ-4B R/B 2.7 19:42:56 10° SSE 19:46:37 68° ENE 19:50:33 10° N
Iridium 4 Rocket 3.0 19:42:47 10° N 19:46:57 80° W 19:51:06 10° S
SL-08 R/B 4.0 19:43:53 10° N 19:48:45 61° WNW 19:53:34 10° SSW
Meteor 1-14 Rocket 4.1 19:44:29 10° S 19:49:58 68° E 19:55:28 10° NNE
Okean 3 Rocket 3.9 19:46:36 10° SSE 19:50:52 45° E 19:55:07 10° NNE
Lacrosse 4 Rocket 1.5 19:47:03 10° NNW 19:51:24 84° WSW 19:54:43 16° SSE
USA 276 4.2 19:50:23 10° NNW 19:52:03 14° N 19:53:02 12° NE
Cosmos 1356 Rocket 3.9 19:48:26 10° N 19:52:23 38° ENE 19:53:58 27° ESE
ARGOS Delta rocket 3.9 19:47:44 10° SSE 19:52:55 84° ENE 19:57:50 10° N
BREEZE-M DEB (TANK) 4.3 19:52:19 10° S 19:53:20 19° SSE 19:53:20 19° SSE
Meteor 1-11 Rocket 4.2 19:49:42 10° SSE 19:54:51 37° E 19:59:56 10° NNE
Okean O Rocket 2.4 19:54:49 27° ESE 19:56:09 32° ENE 20:00:06 10° N
Cosmos 1707 2.8 19:52:55 10° N 19:56:19 43° E 19:57:09 36° ESE
NOSS 2-1 (E) 3.9 19:54:43 10° NNW 19:58:43 53° NE 20:01:15 28° ESE
Cosmos 2034 Rocket 4.5 19:57:25 16° SSE 20:01:45 37° E 20:07:20 10° NNE
Cosmos 2237 Rocket 2.3 19:56:34 10° S 20:01:58 50° ESE 20:07:24 10° NNE
Cosmos 1515 Rocket 3.9 20:00:15 10° N 20:04:24 44° ENE 20:05:32 36° ESE
Cosmos 1072 Rocket 4.5 19:59:15 10° S 20:05:36 66° E 20:11:56 10° NNE
Resurs 01 Rocket 1.5 20:03:29 19° SSE 20:06:40 79° ENE 20:11:06 10° N
GEOS 3 Rocket 3.6 20:03:09 21° SSE 20:06:44 84° SW 20:11:57 10° NW
NOSS 2-1 (D) 3.7 20:03:20 10° NNW 20:07:22 68° NE 20:09:41 32° SE
Cosmos 1125 Rocket 4.2 20:02:49 10° N 20:07:31 34° ENE 20:08:40 30° E
Meteor 2-10 4.3 20:02:30 10° S 20:07:50 53° E 20:13:20 10° NNE
Cosmos 2219 Rocket 4.5 20:05:18 10° WSW 20:10:00 26° NW 20:14:41 10° N
CSL-04 Rocket 3.6 20:06:26 21° SSE 20:10:06 69° ENE 20:15:24 10° N
KORONAS-FOTON 3.9 20:13:03 10° NNW 20:16:44 71° W 20:18:30 29° S
Okean-O 3.5 20:17:13 31° ENE 20:17:13 31° ENE 20:20:51 10° N
Cosmos 1500 Rocket 4.4 20:18:47 32° ENE 20:18:47 32° ENE 20:21:48 10° NNE
USA 215 4.3 20:21:25 24° SSE 20:21:25 24° SSE 20:24:53 10° S
Terra 3.5 20:31:44 19° NE 20:31:44 19° NE 20:34:02 10° NNE
Cosmos 1980 3.7 20:25:27 10° SSW 20:31:07 86° WNW 20:36:51 10° NNE
Cosmos 2208 Rocket 4.0 20:29:55 35° SSE 20:31:55 58° ESE 20:37:07 10° NNE
Cosmos 1408 Rocket 3.4 20:32:57 65° SSE 20:33:31 77° E 20:37:54 10° N
Cosmos 2369 Rocket 4.2 20:32:57 10° NNE 20:35:28 13° NE 20:35:41 13° NE
In-Cosmos 22 4.1 20:33:45 10° N 20:39:29 85° E 20:41:18 45° SSE
NOSS 3-3 (C) 3.5 20:36:06 10° SSW 20:41:13 64° ESE 20:47:09 10° NE
Cosmos 1315 Rocket 3.7 20:45:19 10° N 20:48:01 41° N 20:48:01 41° N
ACS3 Solar Sail 1.9 20:47:14 35° S 20:50:12 83° WSW 20:56:40 10° NNW
Cosmos 1943 Rocket 1.9 20:45:31 10° NNW 20:51:03 76° ENE 20:51:28 72° ESE
Cosmos 1536 4.4 20:49:21 11° SW 20:52:36 32° WNW 20:56:04 10° NNW
USA 59 Rocket 0.9 20:48:29 10° NW 20:52:40 52° WSW 20:53:44 44° SSW
NOSS 3-3 (A) 3.5 20:51:19 10° SSW 20:56:33 89° ESE 21:02:38 10° NE
CZ-4 R/B 4.1 20:56:12 10° SW 20:58:22 15° W 21:00:33 10° WNW
USA 290 4.5 20:56:05 10° NW 20:58:10 25° WNW 20:58:10 25° WNW
Cosmos 1428 Rocket 4.3 20:53:32 10° N 20:59:40 84° E 21:00:34 67° SSE
SL-16 R/B 4.3 21:05:28 14° NE 21:05:28 14° NE 21:06:17 10° NE
ISS -1.4 20:58:53 10° W 21:00:45 24° WNW 21:00:45 24° WNW
Fengyun 1C 4.5 21:01:56 85° SSE 21:02:06 89° E 21:07:31 10° NNW
SPOT 5 3.1 21:06:24 60° NNW 21:06:24 60° NNW 21:10:07 10° NNW
BlueWalker 3 3.7 21:02:40 10° WNW 21:04:50 29° W 21:04:50 29° W
Cosmos 2195 Rocket 4.3 21:09:14 10° N 21:15:22 83° W 21:15:44 78° SSW
MOS 1 4.5 21:18:39 62° SW 21:19:06 64° WSW 21:24:46 10° NNW
Meteor 1-23 Rocket 4.3 21:15:13 10° NNW 21:20:31 74° WNW 21:20:31 74° WNW
Cosmos 1092 Rocket 3.9 21:14:40 10° N 21:20:56 87° NNE 21:20:56 87° NNE
Cosmos 2278 Rocket 3.2 21:16:14 10° NW 21:21:27 39° WSW 21:22:24 36° SW
Cosmos 2026 Rocket 3.9 21:17:07 10° N 21:23:11 84° NW 21:23:11 84° NW
MOS 1 Rocket 4.2 21:29:07 51° NW 21:29:07 51° NW 21:33:07 10° NNW
Cosmos 1634 Rocket 4.0 21:31:43 74° NNW 21:31:43 74° NNW 21:37:30 10° N
Okean O Rocket 3.7 21:32:10 22° W 21:32:25 22° W 21:35:54 10° NW
ERS-1 Rocket 4.0 21:36:13 42° NNW 21:36:13 42° NNW 21:39:32 10° NNW
Ariane Rocket 4.5 21:40:38 30° N 21:40:38 30° N 21:43:13 10° N
Cosmos 2237 Rocket 4.3 21:41:47 10° WSW 21:46:17 24° NW 21:50:49 10° N
BREEZE-M DEB (TANK) 4.5 21:56:19 10° WNW 22:07:16 42° N 22:07:16 42° N
Terra 4.1 22:10:26 22° NW 22:10:26 22° NW 22:12:15 10° NNW
Cosmos 2369 Rocket 3.9 22:14:45 10° NNW 22:17:27 29° NNW 22:17:27 29° NNW
ACS3 Solar Sail 4.4 22:32:57 10° WSW 22:35:07 12° W 22:37:19 10° WNW
USA 267 4.3 22:37:26 41° NNW 22:37:26 41° NNW 22:41:46 10° NW
SL-16 R/B 4.3 22:47:17 22° NNW 22:47:17 22° NNW 22:49:58 10° N
